Home > Weather > Iquitos > Past weeks

Flag for Peru Past Weather in Iquitos, Loreto, Peru — Yesterday and Last 2 Weeks

Now
79 °F

Passing clouds.


Feels Like: 82 °F
Forecast: 72 / 82 °F
Wind: 3 mph from West

Location: Iquitos Airport

Current Time: Jul 28, 2016 at 7:23:25 PM

Latest Report: Jul 28, 2016 at 7:00 PM


Visibility: N/A

Pressure: 29.86 "Hg

Humidity: 84%

Dew Point: 73 °F

Location of IquitosLocation

Past Weather in Iquitos — Graph

°F

Iquitos Temperature Yesterday

Maximum temperature yesterday: 90 °F (at 1:00 PM)
Minimum temperature yesterday: 72 °F (at 7:00 PM)
Average temperature yesterday: 77 °F

High & Low Weather Summary for the Past Weeks

 TemperatureHumidityPressure
High91 °F (Jul 15, 2:00 PM)100% (Jul 19, 8:00 AM)30.04 "Hg (Jul 19, 8:00 AM)
Low72 °F (Jul 15, 4:00 AM)55% (Jul 15, 3:00 PM)29.80 "Hg (Jul 15, 4:00 PM)
Average78 °F85%29.92 "Hg
* Reported Jul 13 6:00 PM — Jul 28 6:00 PM, Iquitos, Weather by CustomWeather, © 2016

Note: Actual official high and low records may vary slightly from our data, if they occured in-between our weather recording intervals... More about our weather records

Advertising

Iquitos Weather History for the Previous 24 Hours

Scroll right to see more
 ConditionsComfort  
Time TempWeatherWind HumidityBarometerVisibility
6:00 PM
Thu, Jul 28
82 °FPassing clouds.5 mph79%29.83 "HgN/A
5:00 PM82 °FScattered clouds.7 mph74%29.83 "HgN/A
4:00 PM82 °FPartly sunny.3 mph74%29.83 "HgN/A
3:00 PM84 °FBroken clouds.6 mph70%29.86 "HgN/A
2:00 PM84 °FScattered showers. Partly sunny.5 mph66%29.89 "HgN/A
1:00 PM82 °FBroken clouds.7 mph74%29.92 "HgN/A
12:00 PM81 °FBroken clouds.6 mph79%29.95 "HgN/A
11:00 AM81 °FBroken clouds.No wind79%29.98 "HgN/A
10:00 AM77 °FBroken clouds.7 mph83%29.98 "HgN/A
9:00 AM75 °FPartly sunny.6 mph89%29.98 "HgN/A
8:00 AM73 °FOvercast.3 mph94%29.98 "HgN/A
7:00 AM73 °FPartly sunny.No wind94%29.95 "HgN/A
6:00 AM72 °FPassing clouds.3 mph94%29.92 "Hg5 mi
5:00 AM72 °FPartly cloudy.5 mph94%29.92 "Hg5 mi
4:00 AM72 °FPassing clouds.5 mph94%29.92 "Hg4 mi
3:00 AM72 °FFog.5 mph94%29.89 "Hg2 mi
2:00 AM72 °FFog.5 mph94%29.92 "Hg1 mi
1:00 AM72 °FFog.5 mph94%29.92 "Hg5 mi
12:00 AM72 °FClear.No wind94%29.92 "Hg10 mi
11:00 PM
Wed, Jul 27
72 °FClear.3 mph94%29.92 "Hg10 mi
10:00 PM73 °FPassing clouds.3 mph94%29.92 "HgN/A
9:00 PM73 °FPartly cloudy.2 mph94%29.92 "HgN/A
8:00 PM73 °FPartly cloudy.No wind94%29.92 "HgN/A
7:00 PM72 °FPassing clouds.3 mph94%29.86 "HgN/A
Weather by CustomWeather, © 2016

See weather overviewHow to use our weather pages